This demonstration page uses our WeatherBlox Daily Observations layout. Learn more.

Left ArrowRight Arrow

Hourly Observations for October 16, 2021

Temp ( °F °C ) Dew Point ( °F °C ) Humidity (%) Winds ( mph kmh ) Pressure ( in mb ) Visibility ( mi km ) Precip ( " mm )
12:51 am 00:51 Clear 55 12.8 21 -6.1 26 26 ESE 9 15 30.11 1020 10 16 N/A
1:51 am 01:51 Clear 52 11.1 20 -6.7 28 28 ESE 7 11 30.11 1020 10 16 N/A
2:51 am 02:51 Clear 55 12.8 19 -7.2 24 24 ESE 9 15 30.10 1019 10 16 N/A
3:51 am 03:51 Clear 55 12.8 19 -7.2 24 24 ESE 10 17 30.11 1020 10 16 N/A
4:51 am 04:51 Clear 53 11.7 27 -2.8 37 37 E 10 17 30.12 1020 10 16 N/A
5:51 am 05:51 Clear 54 12.2 25 -3.9 33 33 E 13 20 30.15 1021 10 16 N/A
6:51 am 06:51 Sunny 55 12.8 25 -3.9 31 31 ESE 13 20 30.17 1022 10 16 N/A
7:51 am 07:51 Sunny 59 15 26 -3.3 28 28 ESE 13 20 30.18 1022 10 16 N/A
8:51 am 08:51 Sunny 65 18.3 24 -4.4 21 21 ESE 14 22 30.18 1022 10 16 N/A
9:51 am 09:51 Sunny 70 21.1 25 -3.9 18 18 E 14 22 30.16 1021 10 16 N/A
10:51 am 10:51 Sunny 74 23.3 27 -2.8 17 17 E 13 20 30.13 1020 10 16 N/A
11:51 am 11:51 Sunny 79 26.1 30 -1.1 17 17 SSE 15 24 30.09 1019 10 16 N/A
12:51 pm 12:51 Sunny 80 26.7 30 -1.1 16 16 SSE 18 30 30.06 1018 10 16 N/A
1:51 pm 13:51 Sunny 81 27.2 31 -0.6 16 16 SSE 17 28 30.03 1017 10 16 N/A
2:51 pm 14:51 Sunny 82 27.8 32 undefined 16 16 SSE 12 19 30.01 1016 10 16 N/A
3:51 pm 15:51 Sunny 79 26.1 32 undefined 18 18 SE 12 19 30.00 1016 10 16 N/A
4:51 pm 16:51 Sunny 80 26.7 33 0.6 18 18 ESE 17 28 29.99 1016 10 16 N/A
5:51 pm 17:51 Clear 75 23.9 33 0.6 22 22 ESE 10 17 30.01 1016 10 16 N/A
6:51 pm 18:51 Clear 72 22.2 33 0.6 24 24 E 9 15 30.03 1017 10 16 N/A
7:51 pm 19:51 Clear 70 21.1 34 1.1 27 27 E 10 17 30.04 1017 10 16 N/A
8:51 pm 20:51 Clear 69 20.6 33 0.6 26 26 E 10 17 30.05 1018 10 16 N/A
9:51 pm 21:51 Clear 66 18.9 33 0.6 29 29 ESE 9 15 30.06 1018 10 16 N/A
10:51 pm 22:51 Clear 61 16.1 33 0.6 35 35 ESE 7 11 30.06 1018 10 16 N/A
11:51 pm 23:51 Clear 63 17.2 33 0.6 33 33 E 9 15 30.04 1017 10 16 N/A

Powered by AerisWeather